Location: Poughquag
(41.6090°N, 73.6820°W)
Time: 13:33:23
(UTC-04:00)

Altair - Pass Details

Date: 03 June 2020
Orbit: 1501 x 1683 km, 47.2° (Epoch: 05 July)

Event Time Altitude Azimuth Distance (km) Brightness Sun altitude
Rises 20:59:25 0° 218° (SW) 4,766 10.1 -6.2°
Reaches altitude 10° 21:02:33 10° 213° (SSW) 3,808 9.5 -6.7°
Maximum altitude 21:11:55 55° 140° (SE) 1,926 7.7 -8.0°
Drops below altitude 10° 21:21:37 10° 66° (ENE) 3,936 9.4 -9.4°
Sets 21:24:54 0° 63° (ENE) 4,935 9.9 -9.9°
